Regional Weather Roundup
Issued by NWS

Home | Current Version | Previous Version | Text Only | Print | Product List | Glossary Off
Versions: 1 2 3 4 5 6 7 8 9 10 11 12 13 14 15 16 17 18 19 20 21 22 23 24 25 26 27 28 29 30 31 32 33 34 35 36 37 38 39 40 41 42 43 44 45 46 47 48 49 50

000
ASUS45 KBOU 190807
RWRCO

WEATHER ROUNDUP FOR COLORADO
NATIONAL WEATHER SERVICE DENVER/BOULDER CO
200 AM MDT SUN OCT 19 2014

NOTE: "FAIR" INDICATES FEW OR NO CLOUDS BELOW 12000 FEET WITH NO
SIGNIFICANT WEATHER AND/OR OBSTRUCTIONS TO VISIBILITY.

COZ001>005-013-030-031-190900-
...NORTHWEST COLORADO...

CITY           SKY/WX    TMP DP  RH WIND       PRES   REMARKS
CRAIG          CLEAR     31  28  89 CALM      30.17S
HAYDEN         CLEAR     43  28  56 E8        30.18S
MEEKER         CLEAR     37  31  78 VRB6      30.18S
MOUNT WERNER   NOT AVBL
STEAMBOAT SPGS CLEAR     40  30  68 CALM      30.20R
WALDEN         CLEAR     32  25  74 E6        30.23S WCI  26
$$

COZ006>008-011-190900-
...WEST CENTRAL VALLEYS...

CITY           SKY/WX    TMP DP  RH WIND       PRES   REMARKS
GRAND JUNCTION CLOUDY    51  34  52 E5        30.09R
MONTROSE       CLOUDY    54  38  54 SE10      30.16R
EAGLE          PTCLDY    43  34  70 CALM      30.23R
RIFLE          CLOUDY    50  38  63 S3        30.14R
DELTA          CLOUDY    58  39  48 NE3       30.12S
NUCLA          CLOUDY    50  37  62 SE7       30.18R
$$

COZ017>023-064>068-190900-
...SOUTHWEST COLORADO...

CITY           SKY/WX    TMP DP  RH WIND       PRES   REMARKS
DURANGO        PTCLDY    45  39  79 N3        30.19S
CORTEZ         PTCLDY    43  36  76 SE5       30.14S
PAGOSA SPRINGS CLOUDY    46  38  74 NE3       30.26R
TELLURIDE      CLOUDY    49  35  58 CALM      30.31S
WOLF CREEK PAS CLOUDY    34  32  93 SW16G24   30.42S WCI  23
$$

COZ009-010-012-014-032>034-037-058>063-190900-
...CENTRAL COLORADO...

CITY           SKY/WX    TMP DP  RH WIND       PRES   REMARKS
ASPEN          CLOUDY   N/A N/A N/A CALM      30.23S
BUENA VISTA    CLOUDY    47  30  51 N7        30.25S
COPPER MTN     PTCLDY    37  27  65 W6        30.43S
BERTHOUD PASS  FAIR      30  28  93 NW12      30.45S WCI  21
COTTONWOOD PAS CLOUDY    48  28  46 S3        30.33S
GUNNISON       CLOUDY    46  32  57 CALM      30.26S
KREMMLING      CLEAR     32  28  86 CALM        N/A
LEADVILLE      MOCLDY    34  25  69 NE3       30.32S
SALIDA         CLOUDY    53  33  47 NW6       30.29S
SUNLIGHT       CLOUDY    43  28  56 CALM      30.39S
WILKERSON PASS NOT AVBL
$$

COZ069>075-190900-
...SAN LUIS VALLEY/SANGRE DE CRISTO MOUNTAINS...

CITY           SKY/WX    TMP DP  RH WIND       PRES   REMARKS
ALAMOSA        CLOUDY    47  39  74 E3        30.22S
LA VETA PASS   CLOUDY    39  36  87 SW8       30.32S
SAGUACHE       NOT AVBL
$$

COZ035-036-038>040-190900-
...NORTHERN COLORADO FRONT RANGE...

CITY           SKY/WX    TMP DP  RH WIND       PRES   REMARKS
DENVER INTL AP PTCLDY    48  38  68 SW8       30.07S
DMNS CITY PARK   N/A     46  38  75 S2        30.07S
AURORA         PTCLDY    47  37  70 SW8       30.09R
FRONT RANGE AP CLEAR     50  39  66 SW9       30.08S
ERIE MUNI ARPT CLEAR     41  37  83 S3        30.06F
BOULDER MUN AP CLEAR     50  32  50 SW3       30.06F
CENTENNIAL     PTCLDY    44  36  73 SW6       30.09S
BROOMFIELD     CLEAR     54  36  50 CALM      30.08S
FORT COLLINS   PTCLDY    48  43  81 CALM      30.07S
LONGMONT       PTCLDY    45  37  73 W6        30.07F
$$

COZ041-046-047-076>085-087-088-190900-
...PIKES PEAK/PALMER DIVIDE AND SOUTHERN FOOTHILLS...

CITY           SKY/WX    TMP DP  RH WIND       PRES   REMARKS
COLO. SPRINGS  PTCLDY    43  37  79 N9        30.11S
A. F. ACADEMY  CLEAR     39  35  84 N10       30.12F
ELLICOTT       NOT AVBL
FALCON         CLEAR     43  35  73 CALM      30.14S
FORT CARSON    CLOUDY    45  38  77 N9        30.09S
LIMON          CLEAR     35  34  96 NW6       30.08S WCI  30
MONUMENT HILL  CLEAR     41  32  70 W9        30.13S
TRINIDAD       PTCLDY    51  42  71 W18       30.09F
$$

COZ042>045-048>051-090-091-190900-
...NORTHEAST COLORADO...

CITY           SKY/WX    TMP DP  RH WIND       PRES   REMARKS
GREELEY ARPT   PTCLDY    37  28  70 NW3       30.06R
AKRON          CLEAR     47  42  83 SW10      30.02S
BURLINGTON     CLEAR     47  41  80 S9        30.05S
WRAY           CLEAR     47  42  84 S5        30.02F
STERLING       CLEAR     41  37  87 CALM      30.01S
HOLYOKE        CLEAR     41  37  87 CALM      30.03S
FORT MORGAN    CLEAR     40  37  88 NW7       30.03S
$$

COZ086-089-092>099-190900-
...SOUTHEAST COLORADO...

CITY           SKY/WX    TMP DP  RH WIND       PRES   REMARKS
PUEBLO         PTCLDY    46  40  79 CALM      30.06S
LA JUNTA       CLEAR     44  42  93 W8        30.03S
LAMAR          CLEAR     50  44  80 SW6       30.02S
SPRINGFIELD      N/A     48  44  86 S18       30.07F
$$



USA.gov is the U.S. government's official web portal to all federal, state and local government web resources and services.